Location: Chuathbaluk
(61.5726°N, 159.2454°W)
Time: 17:30:36
(UTC+00:00)

NOAA 15 - Pass Details

Date: 17 January 2021
Orbit: 798 x 812 km, 98.7° (Epoch: 05 March)

Event Time Altitude Azimuth Distance (km) Brightness Sun altitude
Rises 05:42:32 0° 184° (S) 3,301 7.8 -24.7°
Reaches altitude 10° 05:44:59 10° 191° (S) 2,377 7.1 -25.0°
Maximum altitude 05:49:57 42° 262° (W) 1,136 5.8 -25.6°
Drops below altitude 10° 05:54:59 10° 334° (NNW) 2,400 7.4 -26.2°
Sets 05:57:28 0° 341° (NNW) 3,337 8.1 -26.4°
